Weather History for KSUE - April, 2012

Change the Weather History Date:

Wednesday, April 18, 2012

  Actual Average Record
Temperature  
Mean Temperature 48 °F -  
Max Temperature 62 °F 53 °F 77 °F (1915)
Min Temperature 33 °F 33 °F 15 °F (1928)
Degree Days  
Heating Degree Days 18    
Moisture  
Dew Point 37 °F    
Average Humidity 74    
Maximum Humidity 87    
Minimum Humidity 45    
Precipitation  
Precipitation 0.06 in - - ()
Sea Level Pressure  
Sea Level Pressure 30.04 in    
Wind  
Wind Speed 11 mph (South)    
Max Wind Speed 26 mph    
Max Gust Speed 34 mph    
Visibility 10 miles    
Events      
Averages and records for this station are not official NWS values.
T = Trace of Precipitation, MM = Missing Value Source: NWS Daily Summary

Daily Weather History Graph

Daily Weather History Graph

Search for Another Location

Airport or City:

Trip Planner

Search our weather history database for the weather conditions in past years. The results will help you decide how hot, cold, wet, or windy it might be!

Date:

Astronomy

Apr. 18, 2012 Rise Set
Actual Time 5:59 AM CDT 7:39 PM CDT
Civil Twilight 5:28 AM CDT 8:10 PM CDT
Nautical Twilight 4:50 AM CDT 8:48 PM CDT
Astronomical Twilight 4:10 AM CDT 9:28 PM CDT
Moon 4:29 AM CDT (4/18) 5:25 PM CDT (4/18)
Length of Visible Light 14h 41m
Length of Day
13h 40m
Waning Crescent, 6% of the Moon is Illuminated
Apr 18
Waning Crescent
Apr 21
New
Apr 29
First Quarter
May 5
Full
May 12
Last Quarter

Hourly Weather History & Observations

Time (CDT) Temp. Windchill Dew Point Humidity Pressure Visibility Wind Dir Wind Speed Gust Speed Precip Events Conditions
12:15 AM 33.8 °F 28.6 °F 28.4 °F 81% 30.31 in 10.0 mi SE 5.8 mph - N/A   Clear
12:35 AM 33.8 °F 28.6 °F 30.2 °F 87% 30.31 in 10.0 mi SE 5.8 mph - N/A   Clear
12:55 AM 33.8 °F 29.6 °F 28.4 °F 81% 30.30 in 10.0 mi SE 4.6 mph - N/A   Clear
1:15 AM 33.8 °F 28.6 °F 30.2 °F 87% 30.30 in 10.0 mi SE 5.8 mph - N/A   Clear
1:35 AM 33.8 °F 27.7 °F 30.2 °F 87% 30.29 in 10.0 mi SE 6.9 mph - N/A   Clear
1:55 AM 33.8 °F 27.7 °F 30.2 °F 87% 30.28 in 10.0 mi SE 6.9 mph - N/A   Clear
2:15 AM 35.6 °F 29.2 °F 30.2 °F 81% 30.27 in 10.0 mi SE 8.1 mph - N/A   Clear
2:35 AM 35.6 °F 29.2 °F 30.2 °F 81% 30.26 in 10.0 mi SE 8.1 mph - N/A   Clear
2:55 AM 35.6 °F 28.0 °F 32.0 °F 87% 30.25 in 10.0 mi SE 10.4 mph - N/A   Clear
3:15 AM 35.6 °F 28.6 °F 30.2 °F 81% 30.26 in 10.0 mi SSE 9.2 mph - N/A   Clear
3:35 AM 37.4 °F 29.8 °F 32.0 °F 81% 30.25 in 10.0 mi SSE 11.5 mph - N/A   Clear
3:55 AM 37.4 °F 29.8 °F 33.8 °F 87% 30.25 in 10.0 mi SSE 11.5 mph - N/A   Mostly Cloudy
4:35 AM 37.4 °F 30.3 °F 33.8 °F 87% 30.22 in 10.0 mi SE 10.4 mph - N/A   Mostly Cloudy
4:55 AM 37.4 °F 29.8 °F 33.8 °F 87% 30.21 in 10.0 mi SSE 11.5 mph 17.3 mph N/A   Overcast
5:15 AM 39.2 °F 31.2 °F 33.8 °F 81% 30.19 in 10.0 mi SSE 13.8 mph 18.4 mph N/A   Overcast
5:35 AM 39.2 °F 31.2 °F 32.0 °F 75% 30.19 in 10.0 mi SSE 13.8 mph - N/A   Overcast
5:55 AM 39.2 °F 30.5 °F 30.2 °F 70% 30.18 in 10.0 mi SSE 16.1 mph 21.9 mph N/A   Overcast
6:15 AM 39.2 °F 30.8 °F 30.2 °F 70% 30.18 in 10.0 mi SSE 15.0 mph - N/A   Overcast
6:35 AM 39.2 °F 29.8 °F 30.2 °F 70% 30.17 in 10.0 mi SSE 18.4 mph 24.2 mph N/A   Overcast
6:55 AM 41.0 °F 32.8 °F 30.2 °F 65% 30.17 in 10.0 mi SSE 16.1 mph 23.0 mph N/A   Overcast
7:15 AM 41.0 °F 33.1 °F 30.2 °F 65% 30.17 in 10.0 mi South 15.0 mph 20.7 mph N/A   Overcast
7:35 AM 39.2 °F 30.8 °F 32.0 °F 75% 30.17 in 10.0 mi South 15.0 mph 24.2 mph N/A   Overcast
7:55 AM 39.2 °F 30.8 °F 33.8 °F 81% 30.16 in 10.0 mi SSE 15.0 mph 20.7 mph N/A   Overcast
8:15 AM 39.2 °F 30.8 °F 33.8 °F 81% 30.15 in 9.0 mi South 15.0 mph 23.0 mph 0.01 in   Overcast
8:35 AM 39.2 °F 30.8 °F 33.8 °F 81% 30.13 in 10.0 mi SSE 15.0 mph 21.9 mph 0.02 in   Overcast
8:55 AM 39.2 °F 30.2 °F 33.8 °F 81% 30.12 in 10.0 mi SSE 17.3 mph 24.2 mph 0.04 in   Overcast
9:15 AM 41.0 °F 32.5 °F 35.6 °F 81% 30.10 in 10.0 mi SSE 17.3 mph 26.5 mph 0.01 in   Overcast
9:35 AM 41.0 °F 32.5 °F 35.6 °F 81% 30.08 in 10.0 mi SSE 17.3 mph 26.5 mph 0.01 in   Overcast
9:55 AM 42.8 °F 33.5 °F 35.6 °F 76% 30.06 in 10.0 mi SSE 23.0 mph 31.1 mph 0.01 in   Overcast
10:15 AM 42.8 °F 33.8 °F 35.6 °F 76% 30.04 in 10.0 mi SSE 21.9 mph 29.9 mph N/A   Overcast
10:35 AM 44.6 °F 36.4 °F 35.6 °F 71% 30.02 in 10.0 mi South 20.7 mph 31.1 mph N/A   Overcast
10:55 AM 44.6 °F 36.6 °F 35.6 °F 71% 30.01 in 10.0 mi South 19.6 mph 32.2 mph N/A   Overcast
11:15 AM 46.4 °F 38.1 °F 35.6 °F 66% 30.00 in 10.0 mi South 24.2 mph 31.1 mph N/A   Overcast
11:35 AM 46.4 °F 37.7 °F 35.6 °F 66% 30.00 in 10.0 mi South 26.5 mph 32.2 mph N/A   Mostly Cloudy
11:55 AM 46.4 °F 38.1 °F 35.6 °F 66% 29.98 in 10.0 mi South 24.2 mph 33.4 mph N/A   Overcast
12:15 PM 46.4 °F 38.7 °F 37.4 °F 71% 29.93 in 10.0 mi South 20.7 mph 33.4 mph 0.01 in   Overcast
12:35 PM 46.4 °F 38.1 °F 37.4 °F 71% 29.95 in 10.0 mi South 24.2 mph 31.1 mph 0.01 in   Mostly Cloudy
12:55 PM 44.6 °F 36.1 °F 37.4 °F 76% 29.94 in 10.0 mi South 21.9 mph 33.4 mph 0.01 in   Overcast
1:15 PM 44.6 °F 35.9 °F 37.4 °F 76% 29.93 in 10.0 mi South 23.0 mph 34.5 mph N/A   Overcast
1:35 PM 44.6 °F 36.1 °F 37.4 °F 76% 29.92 in 10.0 mi South 21.9 mph 31.1 mph N/A   Overcast
1:55 PM 46.4 °F 39.2 °F 39.2 °F 76% 29.92 in 10.0 mi South 18.4 mph 26.5 mph N/A   Overcast
2:15 PM 48.2 °F - 39.2 °F 71% 29.90 in 10.0 mi South 19.6 mph 29.9 mph N/A   Mostly Cloudy
2:35 PM 50.0 °F - 41.0 °F 71% 29.88 in 10.0 mi South 23.0 mph 31.1 mph N/A   Partly Cloudy
2:55 PM 51.8 °F - 41.0 °F 67% 29.88 in 10.0 mi South 19.6 mph 28.8 mph N/A   Scattered Clouds
3:15 PM 53.6 °F - 42.8 °F 67% 29.87 in 10.0 mi South 18.4 mph 23.0 mph N/A   Partly Cloudy
3:35 PM - - - N/A% 29.88 in 10.0 mi South 13.8 mph 20.7 mph N/A   Mostly Cloudy
3:55 PM - - - N/A% 29.87 in 10.0 mi South 12.7 mph - N/A   Mostly Cloudy
4:15 PM - - - N/A% 29.87 in 10.0 mi South 12.7 mph - N/A   Mostly Cloudy
4:35 PM - - - N/A% 29.87 in 10.0 mi SSW 11.5 mph - N/A   Scattered Clouds
4:55 PM - - - N/A% 29.87 in 10.0 mi West 10.4 mph - N/A   Partly Cloudy
5:15 PM - - - N/A% 29.87 in 10.0 mi West 16.1 mph 19.6 mph N/A   Partly Cloudy
5:35 PM 62.6 °F - 42.8 °F 48% 29.88 in 10.0 mi WSW 9.2 mph - N/A   Clear
5:55 PM 62.6 °F - 42.8 °F 48% 29.89 in 10.0 mi West 8.1 mph - N/A   Scattered Clouds
6:15 PM 62.6 °F - 41.0 °F 45% 29.89 in 10.0 mi West 11.5 mph - N/A   Mostly Cloudy
6:35 PM 60.8 °F - 42.8 °F 52% 29.89 in 10.0 mi West 6.9 mph - N/A   Mostly Cloudy
6:55 PM 60.8 °F - 42.8 °F 52% 29.89 in 10.0 mi West 5.8 mph - N/A   Mostly Cloudy
7:15 PM 59.0 °F - 42.8 °F 55% 29.90 in 10.0 mi West 4.6 mph - N/A   Mostly Cloudy
7:35 PM 59.0 °F - 42.8 °F 55% 29.90 in 10.0 mi Calm Calm - N/A   Mostly Cloudy
7:55 PM 55.4 °F - 44.6 °F 67% 29.90 in 10.0 mi South 3.5 mph - N/A   Overcast
8:15 PM 53.6 °F - 44.6 °F 72% 29.91 in 10.0 mi South 3.5 mph - N/A   Overcast
8:35 PM 51.8 °F - 44.6 °F 76% 29.91 in 10.0 mi South 3.5 mph - N/A   Mostly Cloudy
8:55 PM 51.8 °F - 44.6 °F 76% 29.92 in 10.0 mi Calm Calm - N/A   Partly Cloudy
9:15 PM 50.0 °F - 44.6 °F 82% 29.93 in 10.0 mi Calm Calm - N/A   Partly Cloudy
9:35 PM 48.2 °F - 44.6 °F 87% 29.93 in 10.0 mi South 3.5 mph - N/A   Clear
9:55 PM 48.2 °F - 44.6 °F 87% 29.93 in 10.0 mi South 3.5 mph - N/A   Clear
10:15 PM 48.2 °F - 44.6 °F 87% 29.94 in 10.0 mi Calm Calm - N/A   Scattered Clouds
10:35 PM 50.0 °F - 42.8 °F 76% 29.94 in 10.0 mi NNW 5.8 mph - N/A   Partly Cloudy
10:55 PM 50.0 °F - 42.8 °F 76% 29.95 in 10.0 mi NNW 10.4 mph - N/A   Scattered Clouds
11:15 PM 51.8 °F - 42.8 °F 71% 29.96 in 10.0 mi North 8.1 mph - N/A   Partly Cloudy
11:35 PM 48.2 °F - 41.0 °F 76% 29.96 in 10.0 mi North 6.9 mph - N/A   Clear
11:55 PM 48.2 °F - 41.0 °F 76% 29.97 in 10.0 mi North 10.4 mph - N/A   Clear